Year,Month,Day,Hour,Minute,Value (Times are PST for temperature in C)
2014,08,27,00,00,18.50
2014,08,27,00,01,18.40
2014,08,27,00,02,18.40
2014,08,27,00,03,18.40
2014,08,27,00,04,18.40
2014,08,27,00,05,18.30
2014,08,27,00,06,18.30
2014,08,27,00,07,18.30
2014,08,27,00,08,18.20
2014,08,27,00,09,18.20
2014,08,27,00,10,18.20
2014,08,27,00,11,18.20
2014,08,27,00,12,18.10
2014,08,27,00,13,18.10
2014,08,27,00,14,18.10
2014,08,27,00,15,18.00
2014,08,27,00,16,18.00
2014,08,27,00,17,18.00
2014,08,27,00,18,17.90
2014,08,27,00,19,17.90
2014,08,27,00,20,17.90
2014,08,27,00,21,17.90
2014,08,27,00,22,17.90
2014,08,27,00,23,17.90
2014,08,27,00,24,17.90
2014,08,27,00,25,17.80
2014,08,27,00,26,17.80
2014,08,27,00,27,17.80
2014,08,27,00,28,17.80
2014,08,27,00,29,17.80
2014,08,27,00,30,17.80
2014,08,27,00,31,17.80
2014,08,27,00,32,17.80
2014,08,27,00,33,17.80
2014,08,27,00,34,17.80
2014,08,27,00,35,17.80
2014,08,27,00,36,17.80
2014,08,27,00,37,17.80
2014,08,27,00,38,17.80
2014,08,27,00,39,17.80
2014,08,27,00,40,17.80
2014,08,27,00,41,17.80
2014,08,27,00,42,17.80
2014,08,27,00,43,17.80
2014,08,27,00,44,17.80
2014,08,27,00,45,17.80
2014,08,27,00,46,17.80
2014,08,27,00,47,17.80
2014,08,27,00,48,17.80
2014,08,27,00,49,17.80
2014,08,27,00,50,17.80
2014,08,27,00,51,17.80
2014,08,27,00,52,17.80
2014,08,27,00,53,17.80
2014,08,27,00,54,17.80
2014,08,27,00,55,17.80
2014,08,27,00,56,17.80
2014,08,27,00,57,17.80
2014,08,27,00,58,17.80
2014,08,27,00,59,17.80
2014,08,27,01,00,17.80
2014,08,27,01,01,17.80
2014,08,27,01,02,17.90
2014,08,27,01,03,17.90
2014,08,27,01,04,17.90
2014,08,27,01,05,17.90
2014,08,27,01,06,17.90
2014,08,27,01,07,17.90
2014,08,27,01,08,18.00
2014,08,27,01,09,18.00
2014,08,27,01,10,18.00
2014,08,27,01,11,18.00
2014,08,27,01,12,18.10
2014,08,27,01,13,18.10
2014,08,27,01,14,18.10
2014,08,27,01,15,18.10
2014,08,27,01,16,18.10
2014,08,27,01,17,18.20
2014,08,27,01,18,18.20
2014,08,27,01,19,18.30
2014,08,27,01,20,18.30
2014,08,27,01,21,18.30
2014,08,27,01,22,18.30
2014,08,27,01,23,18.30
2014,08,27,01,24,18.30
2014,08,27,01,25,18.30
2014,08,27,01,26,18.40
2014,08,27,01,27,18.30
2014,08,27,01,28,18.30
2014,08,27,01,29,18.30
2014,08,27,01,30,18.30
2014,08,27,01,31,18.40
2014,08,27,01,32,18.40
2014,08,27,01,33,18.40
2014,08,27,01,34,18.40
2014,08,27,01,35,18.40
2014,08,27,01,36,18.50
2014,08,27,01,37,18.40
2014,08,27,01,38,18.40
2014,08,27,01,39,18.40
2014,08,27,01,40,18.40
2014,08,27,01,41,18.50
2014,08,27,01,42,18.60
2014,08,27,01,43,18.60
2014,08,27,01,44,18.60
2014,08,27,01,45,18.60
2014,08,27,01,46,18.60
2014,08,27,01,47,18.60
2014,08,27,01,48,18.60
2014,08,27,01,49,18.60
2014,08,27,01,50,18.60
2014,08,27,01,51,18.60
2014,08,27,01,52,18.60
2014,08,27,01,53,18.60
2014,08,27,01,54,18.60
2014,08,27,01,55,18.60
2014,08,27,01,56,18.50
2014,08,27,01,57,18.50
2014,08,27,01,58,18.50
2014,08,27,01,59,18.50
2014,08,27,02,00,18.50
2014,08,27,02,01,18.50
2014,08,27,02,02,18.50
2014,08,27,02,03,18.50
2014,08,27,02,04,18.50
2014,08,27,02,05,18.40
2014,08,27,02,06,18.40
2014,08,27,02,07,18.40
2014,08,27,02,08,18.40
2014,08,27,02,09,18.40
2014,08,27,02,10,18.40
2014,08,27,02,11,18.40
2014,08,27,02,12,18.40
2014,08,27,02,13,18.40
2014,08,27,02,14,18.40
2014,08,27,02,15,18.40
2014,08,27,02,16,18.40
2014,08,27,02,17,18.40
2014,08,27,02,18,18.40
2014,08,27,02,19,18.30
2014,08,27,02,20,18.30
2014,08,27,02,21,18.30
2014,08,27,02,22,18.30
2014,08,27,02,23,18.30
2014,08,27,02,24,18.30
2014,08,27,02,25,18.30
2014,08,27,02,26,18.30
2014,08,27,02,27,18.30
2014,08,27,02,28,18.30
2014,08,27,02,29,18.30
2014,08,27,02,30,18.20
2014,08,27,02,31,18.20
2014,08,27,02,32,18.20
2014,08,27,02,33,18.20
2014,08,27,02,34,18.10
2014,08,27,02,35,18.10
2014,08,27,02,36,18.00
2014,08,27,02,37,17.90
2014,08,27,02,38,17.90
2014,08,27,02,39,17.80
2014,08,27,02,40,17.80
2014,08,27,02,41,17.70
2014,08,27,02,42,17.70
2014,08,27,02,43,17.60
2014,08,27,02,44,17.50
2014,08,27,02,45,17.40
2014,08,27,02,46,17.30
2014,08,27,02,47,17.20
2014,08,27,02,48,17.20
2014,08,27,02,49,17.10
2014,08,27,02,50,17.00
2014,08,27,02,51,16.90
2014,08,27,02,52,16.90
2014,08,27,02,53,16.80
2014,08,27,02,54,16.80
2014,08,27,02,55,16.70
2014,08,27,02,56,16.70
2014,08,27,02,57,16.60
2014,08,27,02,58,16.60
2014,08,27,02,59,16.60
2014,08,27,03,00,16.50
2014,08,27,03,01,16.50
2014,08,27,03,02,16.40
2014,08,27,03,03,16.30
2014,08,27,03,04,16.30
2014,08,27,03,05,16.30
2014,08,27,03,06,16.20
2014,08,27,03,07,16.20
2014,08,27,03,08,16.20
2014,08,27,03,09,16.10
2014,08,27,03,10,16.10
2014,08,27,03,11,16.10
2014,08,27,03,12,16.10
2014,08,27,03,13,16.00
2014,08,27,03,14,16.00
2014,08,27,03,15,16.00
2014,08,27,03,16,16.00
2014,08,27,03,17,16.00
2014,08,27,03,18,15.90
2014,08,27,03,19,15.90
2014,08,27,03,20,15.90
2014,08,27,03,21,15.90
2014,08,27,03,22,15.90
2014,08,27,03,23,15.80
2014,08,27,03,24,15.80
2014,08,27,03,25,15.80
2014,08,27,03,26,15.80
2014,08,27,03,27,15.70
2014,08,27,03,28,15.70
2014,08,27,03,29,15.70
2014,08,27,03,30,15.70
2014,08,27,03,31,15.70
2014,08,27,03,32,15.70
2014,08,27,03,33,15.70
2014,08,27,03,34,15.70
2014,08,27,03,35,15.60
2014,08,27,03,36,15.60
2014,08,27,03,37,15.60
2014,08,27,03,38,15.60
2014,08,27,03,39,15.60
2014,08,27,03,40,15.60
2014,08,27,03,41,15.60
2014,08,27,03,42,15.50
2014,08,27,03,43,15.50
2014,08,27,03,44,15.50
2014,08,27,03,45,15.50
2014,08,27,03,46,15.50
2014,08,27,03,47,15.40
2014,08,27,03,48,15.40
2014,08,27,03,49,15.40
2014,08,27,03,50,15.40
2014,08,27,03,51,15.40
2014,08,27,03,52,15.30
2014,08,27,03,53,15.30
2014,08,27,03,54,15.30
2014,08,27,03,55,15.30
2014,08,27,03,56,15.30
2014,08,27,03,57,15.30
2014,08,27,03,58,15.30
2014,08,27,03,59,15.30
2014,08,27,04,00,15.40
2014,08,27,04,01,15.40
2014,08,27,04,02,15.40
2014,08,27,04,03,15.40
2014,08,27,04,04,15.40
2014,08,27,04,05,15.50
2014,08,27,04,06,15.50
2014,08,27,04,07,15.60
2014,08,27,04,08,15.70
2014,08,27,04,09,15.70
2014,08,27,04,10,15.70
2014,08,27,04,11,15.70
2014,08,27,04,12,15.70
2014,08,27,04,13,15.70
2014,08,27,04,14,15.70
2014,08,27,04,15,15.70
2014,08,27,04,16,15.70
2014,08,27,04,17,15.60
2014,08,27,04,18,15.60
2014,08,27,04,19,15.60
2014,08,27,04,20,15.60
2014,08,27,04,21,15.50
2014,08,27,04,22,15.50
2014,08,27,04,23,15.50
2014,08,27,04,24,15.50
2014,08,27,04,25,15.40
2014,08,27,04,26,15.40
2014,08,27,04,27,15.40
2014,08,27,04,28,15.30
2014,08,27,04,29,15.30
2014,08,27,04,30,15.30
2014,08,27,04,31,15.30
2014,08,27,04,32,15.20
2014,08,27,04,33,15.20
2014,08,27,04,34,15.20
2014,08,27,04,35,15.20
2014,08,27,04,36,15.10
2014,08,27,04,37,15.10
2014,08,27,04,38,15.10
2014,08,27,04,39,15.10
2014,08,27,04,40,15.00
2014,08,27,04,41,15.00
2014,08,27,04,42,15.00
2014,08,27,04,43,15.00
2014,08,27,04,44,14.90
2014,08,27,04,45,14.90
2014,08,27,04,46,14.90
2014,08,27,04,47,14.90
2014,08,27,04,48,14.90
2014,08,27,04,49,14.80
2014,08,27,04,50,14.80
2014,08,27,04,51,14.80
2014,08,27,04,52,14.80
2014,08,27,04,53,14.80
2014,08,27,04,54,14.80
2014,08,27,04,55,14.80
2014,08,27,04,56,14.70
2014,08,27,04,57,14.70
2014,08,27,04,58,14.70
2014,08,27,04,59,14.70
2014,08,27,05,00,14.70
2014,08,27,05,01,14.70
2014,08,27,05,02,14.70
2014,08,27,05,03,14.60
2014,08,27,05,04,14.60
2014,08,27,05,05,14.60
2014,08,27,05,06,14.60
2014,08,27,05,07,14.60
2014,08,27,05,08,14.50
2014,08,27,05,09,14.50
2014,08,27,05,10,14.50
2014,08,27,05,11,14.50
2014,08,27,05,12,14.40
2014,08,27,05,13,14.40
2014,08,27,05,14,14.40
2014,08,27,05,15,14.40
2014,08,27,05,16,14.30
2014,08,27,05,17,14.30
2014,08,27,05,18,14.30
2014,08,27,05,19,14.30
2014,08,27,05,20,14.30
2014,08,27,05,21,14.30
2014,08,27,05,22,14.30
2014,08,27,05,23,14.20
2014,08,27,05,24,14.20
2014,08,27,05,25,14.20
2014,08,27,05,26,14.20
2014,08,27,05,27,14.20
2014,08,27,05,28,14.10
2014,08,27,05,29,14.10
2014,08,27,05,30,14.10
2014,08,27,05,31,14.10
2014,08,27,05,32,14.10
2014,08,27,05,33,14.10
2014,08,27,05,34,14.00
2014,08,27,05,35,14.00
2014,08,27,05,36,14.00
2014,08,27,05,37,13.90
2014,08,27,05,38,13.90
2014,08,27,05,39,13.90
2014,08,27,05,40,13.90
2014,08,27,05,41,13.90
2014,08,27,05,42,13.80
2014,08,27,05,43,13.80
2014,08,27,05,44,13.80
2014,08,27,05,45,13.80
2014,08,27,05,46,13.80
2014,08,27,05,47,13.80
2014,08,27,05,48,13.80
2014,08,27,05,49,13.70
2014,08,27,05,50,13.70
2014,08,27,05,51,13.70
2014,08,27,05,52,13.70
2014,08,27,05,53,13.70
2014,08,27,05,54,13.60
2014,08,27,05,55,13.60
2014,08,27,05,56,13.60
2014,08,27,05,57,13.60
2014,08,27,05,58,13.60
2014,08,27,05,59,13.60
2014,08,27,06,00,13.60
2014,08,27,06,01,13.60
2014,08,27,06,02,13.50
2014,08,27,06,03,13.50
2014,08,27,06,04,13.50
2014,08,27,06,05,13.50
2014,08,27,06,06,13.50
2014,08,27,06,07,13.40
2014,08,27,06,08,13.50
2014,08,27,06,09,13.40
2014,08,27,06,10,13.40
2014,08,27,06,11,13.40
2014,08,27,06,12,13.40
2014,08,27,06,13,13.40
2014,08,27,06,14,13.40
2014,08,27,06,15,13.30
2014,08,27,06,16,13.30
2014,08,27,06,17,13.30
2014,08,27,06,18,13.30
2014,08,27,06,19,13.30
2014,08,27,06,20,13.30
2014,08,27,06,21,13.20
2014,08,27,06,22,13.20
2014,08,27,06,23,13.20
2014,08,27,06,24,13.20
2014,08,27,06,25,13.20
2014,08,27,06,26,13.20
2014,08,27,06,27,13.20
2014,08,27,06,28,13.20
2014,08,27,06,29,13.20
2014,08,27,06,30,13.20
2014,08,27,06,31,13.20
2014,08,27,06,32,13.20
2014,08,27,06,33,13.20
2014,08,27,06,34,13.20
2014,08,27,06,35,13.20
2014,08,27,06,36,13.20
2014,08,27,06,37,13.20
2014,08,27,06,38,13.30
2014,08,27,06,39,13.30
2014,08,27,06,40,13.30
2014,08,27,06,41,13.30
2014,08,27,06,42,13.30
2014,08,27,06,43,13.30
2014,08,27,06,44,13.30
2014,08,27,06,45,13.30
2014,08,27,06,46,13.30
2014,08,27,06,47,13.30
2014,08,27,06,48,13.30
2014,08,27,06,49,13.30
2014,08,27,06,50,13.30
2014,08,27,06,51,13.30
2014,08,27,06,52,13.30
2014,08,27,06,53,13.30
2014,08,27,06,54,13.30
2014,08,27,06,55,13.30
2014,08,27,06,56,13.30
2014,08,27,06,57,13.30
2014,08,27,06,58,13.30
2014,08,27,06,59,13.30
2014,08,27,07,00,13.20
2014,08,27,07,01,13.20
2014,08,27,07,02,13.20
2014,08,27,07,03,13.20
2014,08,27,07,04,13.20
2014,08,27,07,05,13.20
2014,08,27,07,06,13.20
2014,08,27,07,07,13.20
2014,08,27,07,08,13.20
2014,08,27,07,09,13.20
2014,08,27,07,10,13.20
2014,08,27,07,11,13.10
2014,08,27,07,12,13.10
2014,08,27,07,13,13.10
2014,08,27,07,14,13.10
2014,08,27,07,15,13.10
2014,08,27,07,16,13.10
2014,08,27,07,17,13.10
2014,08,27,07,18,13.10
2014,08,27,07,19,13.10
2014,08,27,07,20,13.10
2014,08,27,07,21,13.10
2014,08,27,07,22,13.10
2014,08,27,07,23,13.10
2014,08,27,07,24,13.10
2014,08,27,07,25,13.10
2014,08,27,07,26,13.10
2014,08,27,07,27,13.10
2014,08,27,07,28,13.10
2014,08,27,07,29,13.10
2014,08,27,07,30,13.10
2014,08,27,07,31,13.20
2014,08,27,07,32,13.20
2014,08,27,07,33,13.20
2014,08,27,07,34,13.20
2014,08,27,07,35,13.20
2014,08,27,07,36,13.20
2014,08,27,07,37,13.20
2014,08,27,07,38,13.30
2014,08,27,07,39,13.30
2014,08,27,07,40,13.30
2014,08,27,07,41,13.30
2014,08,27,07,42,13.30
2014,08,27,07,43,13.30
2014,08,27,07,44,13.30
2014,08,27,07,45,13.30
2014,08,27,07,46,13.30
2014,08,27,07,47,13.40
2014,08,27,07,48,13.40
2014,08,27,07,49,13.40
2014,08,27,07,50,13.40
2014,08,27,07,51,13.50
2014,08,27,07,52,13.50
2014,08,27,07,53,13.60
2014,08,27,07,54,13.60
2014,08,27,07,55,13.60
2014,08,27,07,56,13.70
2014,08,27,07,57,13.70
2014,08,27,07,58,13.70
2014,08,27,07,59,13.70
2014,08,27,08,00,13.80
2014,08,27,08,01,13.80
2014,08,27,08,02,13.80
2014,08,27,08,03,13.90
2014,08,27,08,04,13.90
2014,08,27,08,05,14.00
2014,08,27,08,06,14.00
2014,08,27,08,07,14.10
2014,08,27,08,08,14.10
2014,08,27,08,09,14.20
2014,08,27,08,10,14.30
2014,08,27,08,11,14.30
2014,08,27,08,12,14.40
2014,08,27,08,13,14.50
2014,08,27,08,14,14.50
2014,08,27,08,15,14.60
2014,08,27,08,16,14.60
2014,08,27,08,17,14.70
2014,08,27,08,18,14.80
2014,08,27,08,19,14.80
2014,08,27,08,20,14.90
2014,08,27,08,21,15.00
2014,08,27,08,22,15.10
2014,08,27,08,23,15.20
2014,08,27,08,24,15.30
2014,08,27,08,25,15.30
2014,08,27,08,26,15.40
2014,08,27,08,27,15.50
2014,08,27,08,28,15.60
2014,08,27,08,29,15.60
2014,08,27,08,30,15.70
2014,08,27,08,31,15.80
2014,08,27,08,32,15.90
2014,08,27,08,33,15.90
2014,08,27,08,34,16.00
2014,08,27,08,35,16.10
2014,08,27,08,36,16.10
2014,08,27,08,37,16.10
2014,08,27,08,38,16.20
2014,08,27,08,39,16.20
2014,08,27,08,40,16.20
2014,08,27,08,41,16.30
2014,08,27,08,42,16.30
2014,08,27,08,43,16.40
2014,08,27,08,44,16.50
2014,08,27,08,45,16.50
2014,08,27,08,46,16.60
2014,08,27,08,47,16.70
2014,08,27,08,48,16.70
2014,08,27,08,49,16.80
2014,08,27,08,50,16.80
2014,08,27,08,51,16.80
2014,08,27,08,52,16.90
2014,08,27,08,53,17.00
2014,08,27,08,54,17.00
2014,08,27,08,55,17.10
2014,08,27,08,56,17.10
2014,08,27,08,57,17.20
2014,08,27,08,58,17.20
2014,08,27,08,59,17.20
2014,08,27,09,00,17.20
2014,08,27,09,01,17.30
2014,08,27,09,02,17.30
2014,08,27,09,03,17.40
2014,08,27,09,04,17.40
2014,08,27,09,05,17.50
2014,08,27,09,06,17.60
2014,08,27,09,07,17.70
2014,08,27,09,08,17.80
2014,08,27,09,09,17.80
2014,08,27,09,10,17.90
2014,08,27,09,11,18.00
2014,08,27,09,12,18.10
2014,08,27,09,13,18.20
2014,08,27,09,14,18.20
2014,08,27,09,15,18.30
2014,08,27,09,16,18.30
2014,08,27,09,17,18.40
2014,08,27,09,18,18.40
2014,08,27,09,19,18.40
2014,08,27,09,20,18.40
2014,08,27,09,21,18.40
2014,08,27,09,22,18.50
2014,08,27,09,23,18.50
2014,08,27,09,24,18.60
2014,08,27,09,25,18.60
2014,08,27,09,26,18.70
2014,08,27,09,27,18.80
2014,08,27,09,28,18.80
2014,08,27,09,29,18.90
2014,08,27,09,30,19.00
2014,08,27,09,31,19.10
2014,08,27,09,32,19.20
2014,08,27,09,33,19.20
2014,08,27,09,34,19.20
2014,08,27,09,35,19.20
2014,08,27,09,36,19.20
2014,08,27,09,37,19.30
2014,08,27,09,38,19.30
2014,08,27,09,39,19.30
2014,08,27,09,40,19.30
2014,08,27,09,41,19.30
2014,08,27,09,42,19.40
2014,08,27,09,43,19.40
2014,08,27,09,44,19.50
2014,08,27,09,45,19.50
2014,08,27,09,46,19.60
2014,08,27,09,47,19.60
2014,08,27,09,48,19.60
2014,08,27,09,49,19.70
2014,08,27,09,50,19.70
2014,08,27,09,51,19.80
2014,08,27,09,52,19.80
2014,08,27,09,53,19.90
2014,08,27,09,54,19.90
2014,08,27,09,55,20.00
2014,08,27,09,56,20.10
2014,08,27,09,57,20.20
2014,08,27,09,58,20.20
2014,08,27,09,59,20.30
2014,08,27,10,00,20.30
2014,08,27,10,01,20.40
2014,08,27,10,02,20.40
2014,08,27,10,03,20.40
2014,08,27,10,04,20.40
2014,08,27,10,05,20.50
2014,08,27,10,06,20.50
2014,08,27,10,07,20.50
2014,08,27,10,08,20.60
2014,08,27,10,09,20.60
2014,08,27,10,10,20.70
2014,08,27,10,11,20.70
2014,08,27,10,12,20.70
2014,08,27,10,13,20.70
2014,08,27,10,14,20.60
2014,08,27,10,15,20.60
2014,08,27,10,16,20.50
2014,08,27,10,17,20.50
2014,08,27,10,18,20.40
2014,08,27,10,19,20.40
2014,08,27,10,20,20.30
2014,08,27,10,21,20.30
2014,08,27,10,22,20.30
2014,08,27,10,23,20.30
2014,08,27,10,24,20.30
2014,08,27,10,25,20.30
2014,08,27,10,26,20.30
2014,08,27,10,27,20.30
2014,08,27,10,28,20.30
2014,08,27,10,29,20.30
2014,08,27,10,30,20.30
2014,08,27,10,31,20.30
2014,08,27,10,32,20.30
2014,08,27,10,33,20.20
2014,08,27,10,34,20.30
2014,08,27,10,35,20.30
2014,08,27,10,36,20.30
2014,08,27,10,37,20.30
2014,08,27,10,38,20.40
2014,08,27,10,39,20.40
2014,08,27,10,40,20.40
2014,08,27,10,41,20.40
2014,08,27,10,42,20.40
2014,08,27,10,43,20.50
2014,08,27,10,44,20.50
2014,08,27,10,45,20.60
2014,08,27,10,46,20.60
2014,08,27,10,47,20.70
2014,08,27,10,48,20.70
2014,08,27,10,49,20.70
2014,08,27,10,50,20.60
2014,08,27,10,51,20.60
2014,08,27,10,52,20.60
2014,08,27,10,53,20.60
2014,08,27,10,54,20.60
2014,08,27,10,55,20.70
2014,08,27,10,56,20.70
2014,08,27,10,57,20.70
2014,08,27,10,58,20.70
2014,08,27,10,59,20.80
2014,08,27,11,00,20.80
2014,08,27,11,01,20.80
2014,08,27,11,02,20.90
2014,08,27,11,03,20.90
2014,08,27,11,04,21.00
2014,08,27,11,05,21.10
2014,08,27,11,06,21.10
2014,08,27,11,07,21.10
2014,08,27,11,08,21.20
2014,08,27,11,09,21.20
2014,08,27,11,10,21.30
2014,08,27,11,11,21.30
2014,08,27,11,12,21.40
2014,08,27,11,13,21.50
2014,08,27,11,14,21.50
2014,08,27,11,15,21.60
2014,08,27,11,16,21.70
2014,08,27,11,17,21.70
2014,08,27,11,18,21.80
2014,08,27,11,19,21.90
2014,08,27,11,20,22.00
2014,08,27,11,21,22.10
2014,08,27,11,22,22.10
2014,08,27,11,23,22.20
2014,08,27,11,24,22.20
2014,08,27,11,25,22.20
2014,08,27,11,26,22.10
2014,08,27,11,27,22.10
2014,08,27,11,28,22.10
2014,08,27,11,29,22.10
2014,08,27,11,30,22.10
2014,08,27,11,31,22.10
2014,08,27,11,32,22.10
2014,08,27,11,33,22.10
2014,08,27,11,34,22.10
2014,08,27,11,35,22.10
2014,08,27,11,36,22.00
2014,08,27,11,37,22.00
2014,08,27,11,38,21.90
2014,08,27,11,39,21.90
2014,08,27,11,40,21.80
2014,08,27,11,41,21.80
2014,08,27,11,42,21.80
2014,08,27,11,43,21.80
2014,08,27,11,44,21.80
2014,08,27,11,45,21.80
2014,08,27,11,46,21.90
2014,08,27,11,47,22.00
2014,08,27,11,48,22.00
2014,08,27,11,49,22.10
2014,08,27,11,50,22.10
2014,08,27,11,51,22.10
2014,08,27,11,52,22.20
2014,08,27,11,53,22.30
2014,08,27,11,54,22.30
2014,08,27,11,55,22.40
2014,08,27,11,56,22.40
2014,08,27,11,57,22.40
2014,08,27,11,58,22.50
2014,08,27,11,59,22.50
2014,08,27,12,00,22.50
2014,08,27,12,01,22.50
2014,08,27,12,02,22.50
2014,08,27,12,03,22.40
2014,08,27,12,04,22.40
2014,08,27,12,05,22.30
2014,08,27,12,06,22.30
2014,08,27,12,07,22.20
2014,08,27,12,08,22.20
2014,08,27,12,09,22.10
2014,08,27,12,10,22.10
2014,08,27,12,11,22.10
2014,08,27,12,12,22.00
2014,08,27,12,13,22.00
2014,08,27,12,14,22.00
2014,08,27,12,15,22.00
2014,08,27,12,16,22.00
2014,08,27,12,17,22.00
2014,08,27,12,18,22.10
2014,08,27,12,19,22.10
2014,08,27,12,20,22.10
2014,08,27,12,21,22.20
2014,08,27,12,22,22.30
2014,08,27,12,23,22.30
2014,08,27,12,24,22.40
2014,08,27,12,25,22.40
2014,08,27,12,26,22.50
2014,08,27,12,27,22.60
2014,08,27,12,28,22.60
2014,08,27,12,29,22.70
2014,08,27,12,30,22.80
2014,08,27,12,31,22.90
2014,08,27,12,32,23.00
2014,08,27,12,33,23.10
2014,08,27,12,34,23.20
2014,08,27,12,35,23.30
2014,08,27,12,36,23.40
2014,08,27,12,37,23.50
2014,08,27,12,38,23.60
2014,08,27,12,39,23.60
2014,08,27,12,40,23.70
2014,08,27,12,41,23.80
2014,08,27,12,42,23.90
2014,08,27,12,43,23.90
2014,08,27,12,44,23.80
2014,08,27,12,45,23.80
2014,08,27,12,46,23.70
2014,08,27,12,47,23.70
2014,08,27,12,48,23.70
2014,08,27,12,49,23.70
2014,08,27,12,50,23.60
2014,08,27,12,51,23.60
2014,08,27,12,52,23.60
2014,08,27,12,53,23.60
2014,08,27,12,54,23.60
2014,08,27,12,55,23.60
2014,08,27,12,56,23.50
2014,08,27,12,57,23.50
2014,08,27,12,58,23.50
2014,08,27,12,59,23.40
2014,08,27,13,00,23.40
2014,08,27,13,01,23.40
2014,08,27,13,02,23.30
2014,08,27,13,03,23.20
2014,08,27,13,04,23.10
2014,08,27,13,05,23.00
2014,08,27,13,06,22.90
2014,08,27,13,07,22.70
2014,08,27,13,08,22.60
2014,08,27,13,09,22.50
2014,08,27,13,10,22.40
2014,08,27,13,11,22.30
2014,08,27,13,12,22.20
2014,08,27,13,13,22.10
2014,08,27,13,14,22.00
2014,08,27,13,15,22.00
2014,08,27,13,16,21.90
2014,08,27,13,17,21.90
2014,08,27,13,18,21.90
2014,08,27,13,19,21.90
2014,08,27,13,20,21.90
2014,08,27,13,21,21.90
2014,08,27,13,22,21.90
2014,08,27,13,23,21.90
2014,08,27,13,24,21.90
2014,08,27,13,25,21.90
2014,08,27,13,26,22.00
2014,08,27,13,27,22.00
2014,08,27,13,28,22.10
2014,08,27,13,29,22.10
2014,08,27,13,30,22.20
2014,08,27,13,31,22.20
2014,08,27,13,32,22.30
2014,08,27,13,33,22.30
2014,08,27,13,34,22.30
2014,08,27,13,35,22.40
2014,08,27,13,36,22.40
2014,08,27,13,37,22.50
2014,08,27,13,38,22.60
2014,08,27,13,39,22.60
2014,08,27,13,40,22.70
2014,08,27,13,41,22.70
2014,08,27,13,42,22.80
2014,08,27,13,43,22.80
2014,08,27,13,44,22.90
2014,08,27,13,45,23.00
2014,08,27,13,46,23.00
2014,08,27,13,47,23.10
2014,08,27,13,48,23.20
2014,08,27,13,49,23.40
2014,08,27,13,50,23.50
2014,08,27,13,51,23.60
2014,08,27,13,52,23.70
2014,08,27,13,53,23.80
2014,08,27,13,54,23.90
2014,08,27,13,55,24.00
2014,08,27,13,56,24.00
2014,08,27,13,57,24.10
2014,08,27,13,58,24.10
2014,08,27,13,59,24.10
2014,08,27,14,00,24.10
2014,08,27,14,01,24.10
2014,08,27,14,02,24.10
2014,08,27,14,03,24.20
2014,08,27,14,04,24.30
2014,08,27,14,05,24.40
2014,08,27,14,06,24.40
2014,08,27,14,07,24.40
2014,08,27,14,08,24.40
2014,08,27,14,09,24.40
2014,08,27,14,10,24.40
2014,08,27,14,11,24.40
2014,08,27,14,12,24.40
2014,08,27,14,13,24.40
2014,08,27,14,14,24.40
2014,08,27,14,15,24.30
2014,08,27,14,16,24.30
2014,08,27,14,17,24.20
2014,08,27,14,18,24.20
2014,08,27,14,19,24.20
2014,08,27,14,20,24.20
2014,08,27,14,21,24.10
2014,08,27,14,22,24.10
2014,08,27,14,23,24.10
2014,08,27,14,24,24.10
2014,08,27,14,25,24.00
2014,08,27,14,26,24.10
2014,08,27,14,27,24.10
2014,08,27,14,28,24.00
2014,08,27,14,29,24.00
2014,08,27,14,30,24.10
2014,08,27,14,31,24.10
2014,08,27,14,32,24.10
2014,08,27,14,33,24.10
2014,08,27,14,34,24.20
2014,08,27,14,35,24.20
2014,08,27,14,36,24.30
2014,08,27,14,37,24.30
2014,08,27,14,38,24.20
2014,08,27,14,39,24.20
2014,08,27,14,40,24.20
2014,08,27,14,41,24.10
2014,08,27,14,42,24.10
2014,08,27,14,43,24.00
2014,08,27,14,44,23.90
2014,08,27,14,45,23.80
2014,08,27,14,46,23.70
2014,08,27,14,47,23.50
2014,08,27,14,48,23.40
2014,08,27,14,49,23.30
2014,08,27,14,50,23.10
2014,08,27,14,51,22.90
2014,08,27,14,52,22.60
2014,08,27,14,53,22.40
2014,08,27,14,54,22.20
2014,08,27,14,55,22.10
2014,08,27,14,56,22.00
2014,08,27,14,57,21.90
2014,08,27,14,58,21.90
2014,08,27,14,59,21.80
2014,08,27,15,00,21.80
2014,08,27,15,01,21.80
2014,08,27,15,02,21.80
2014,08,27,15,03,21.80
2014,08,27,15,04,21.80
2014,08,27,15,05,21.80
2014,08,27,15,06,21.80
2014,08,27,15,07,21.80
2014,08,27,15,08,21.80
2014,08,27,15,09,21.80
2014,08,27,15,10,21.70
2014,08,27,15,11,21.60
2014,08,27,15,12,21.40
2014,08,27,15,13,21.20
2014,08,27,15,14,20.90
2014,08,27,15,15,20.70
2014,08,27,15,16,20.50
2014,08,27,15,17,20.30
2014,08,27,15,18,20.20
2014,08,27,15,19,20.10
2014,08,27,15,20,20.10
2014,08,27,15,21,20.20
2014,08,27,15,22,20.30
2014,08,27,15,23,20.40
2014,08,27,15,24,20.40
2014,08,27,15,25,20.50
2014,08,27,15,26,20.70
2014,08,27,15,27,20.80
2014,08,27,15,28,20.90
2014,08,27,15,29,20.90
2014,08,27,15,30,21.00
2014,08,27,15,31,21.20
2014,08,27,15,32,21.30
2014,08,27,15,33,21.50
2014,08,27,15,34,21.60
2014,08,27,15,35,21.80
2014,08,27,15,36,22.00
2014,08,27,15,37,22.30
2014,08,27,15,38,22.60
2014,08,27,15,39,22.90
2014,08,27,15,40,23.20
2014,08,27,15,41,23.50
2014,08,27,15,42,23.70
2014,08,27,15,43,23.90
2014,08,27,15,44,24.20
2014,08,27,15,45,24.30
2014,08,27,15,46,24.50
2014,08,27,15,47,24.60
2014,08,27,15,48,24.70
2014,08,27,15,49,24.80
2014,08,27,15,50,24.80
2014,08,27,15,51,24.90
2014,08,27,15,52,24.90
2014,08,27,15,53,25.00
2014,08,27,15,54,25.10
2014,08,27,15,55,25.20
2014,08,27,15,56,25.20
2014,08,27,15,57,25.20
2014,08,27,15,58,25.20
2014,08,27,15,59,25.20
2014,08,27,16,00,25.20
2014,08,27,16,01,25.20
2014,08,27,16,02,25.20
2014,08,27,16,03,25.20
2014,08,27,16,04,25.20
2014,08,27,16,05,25.20
2014,08,27,16,06,25.20
2014,08,27,16,07,25.20
2014,08,27,16,08,25.20
2014,08,27,16,09,25.30
2014,08,27,16,10,25.30
2014,08,27,16,11,25.30
2014,08,27,16,12,25.40
2014,08,27,16,13,25.40
2014,08,27,16,14,25.40
2014,08,27,16,15,25.40
2014,08,27,16,16,25.40
2014,08,27,16,17,25.40
2014,08,27,16,18,25.40
2014,08,27,16,19,25.40
2014,08,27,16,20,25.40
2014,08,27,16,21,25.40
2014,08,27,16,22,25.40
2014,08,27,16,23,25.40
2014,08,27,16,24,25.40
2014,08,27,16,25,25.40
2014,08,27,16,26,25.40
2014,08,27,16,27,25.40
2014,08,27,16,28,25.50
2014,08,27,16,29,25.50
2014,08,27,16,30,25.60
2014,08,27,16,31,25.60
2014,08,27,16,32,25.60
2014,08,27,16,33,25.70
2014,08,27,16,34,25.70
2014,08,27,16,35,25.70
2014,08,27,16,36,25.70
2014,08,27,16,37,25.70
2014,08,27,16,38,25.80
2014,08,27,16,39,25.80
2014,08,27,16,40,25.80
2014,08,27,16,41,25.90
2014,08,27,16,42,25.90
2014,08,27,16,43,25.90
2014,08,27,16,44,25.90
2014,08,27,16,45,25.90
2014,08,27,16,46,25.80
2014,08,27,16,47,25.80
2014,08,27,16,48,25.70
2014,08,27,16,49,25.60
2014,08,27,16,50,25.60
2014,08,27,16,51,25.60
2014,08,27,16,52,25.50
2014,08,27,16,53,25.60
2014,08,27,16,54,25.60
2014,08,27,16,55,25.60
2014,08,27,16,56,25.60
2014,08,27,16,57,25.70
2014,08,27,16,58,25.70
2014,08,27,16,59,25.70
2014,08,27,17,00,25.70
2014,08,27,17,01,25.70
2014,08,27,17,02,25.70
2014,08,27,17,03,25.60
2014,08,27,17,04,25.60
2014,08,27,17,05,25.50
2014,08,27,17,06,25.50
2014,08,27,17,07,25.40
2014,08,27,17,08,25.30
2014,08,27,17,09,25.30
2014,08,27,17,10,25.30
2014,08,27,17,11,25.30
2014,08,27,17,12,25.30
2014,08,27,17,13,25.30
2014,08,27,17,14,25.30
2014,08,27,17,15,25.40
2014,08,27,17,16,25.40
2014,08,27,17,17,25.40
2014,08,27,17,18,25.40
2014,08,27,17,19,25.40